Date String (YYYY-MM-DD hh:mm:ss) UTC,Instrument flags,Ambient pressure (hPa),Sample flow (lpm),Bypass flow (lpm),Sample temperature (°C),Ambient temperature (°C),ASC tube jacket temperature (°C),LED temperature (°C),Box temperature (°C),Sample RH (%),Span deviation,Mass concentration (μg/m³),Mass concentration (μg/m³),Mass concentration (μg/m³)
DateTimeUTC,F1_M11,P_M11,Q1_M11,Q2_M11,T1_M11,T2_M11,T3_M11,T4_M11,T5_M11,U1_M11,ZSPAN_M11,X2_M11,X0_M11,X1_M11
2022-03-05 22:00:00,,0820.7,5.01,0.00,22.8,22.5,00.0,31.7,24.6,12.7,0000.0,0004.63,0007.73,0004.40
2022-03-05 22:01:00,,0820.6,5.01,0.00,22.8,22.4,00.0,31.7,24.6,13.0,0000.0,0004.65,0007.77,0004.40
2022-03-05 22:02:00,,0820.6,4.99,0.00,22.8,22.3,00.0,31.7,24.5,12.9,0000.0,0004.67,0007.10,0004.39
2022-03-05 22:03:00,,0820.6,5.01,0.00,22.8,22.2,00.0,31.7,24.5,12.8,0000.0,0004.65,0007.05,0004.38
2022-03-05 22:04:00,,0820.6,5.00,0.00,22.8,22.2,00.0,31.7,24.5,12.8,0000.0,0004.62,0006.98,0004.37
2022-03-05 22:05:00,,0820.7,4.99,0.00,22.8,22.2,00.0,31.7,24.5,12.8,0000.0,0004.63,0007.00,0004.37
2022-03-05 22:06:00,,0820.7,4.99,0.00,22.7,22.1,00.0,31.7,24.5,13.0,0000.0,0004.62,0006.99,0004.37
2022-03-05 22:07:00,,0820.7,5.00,0.00,22.7,22.1,00.0,31.7,24.5,13.1,0000.0,0004.59,0006.85,0004.36
2022-03-05 22:08:00,,0820.7,4.99,0.00,22.7,22.0,00.0,31.7,24.5,13.0,0000.0,0004.58,0006.79,0004.36
2022-03-05 22:09:00,,0820.8,5.00,0.00,22.7,22.0,00.0,31.7,24.5,13.1,0000.0,0004.59,0006.85,0004.36
2022-03-05 22:10:00,,0820.8,4.99,0.00,22.7,22.0,00.0,31.7,24.5,13.2,0000.0,0004.58,0006.86,0004.35
2022-03-05 22:11:00,,0820.7,5.01,0.00,22.7,22.0,00.0,31.7,24.4,13.0,0000.0,0004.57,0006.86,0004.35
2022-03-05 22:12:00,,0820.8,4.99,0.00,22.7,22.0,00.0,31.7,24.4,12.9,0000.7,0004.53,0006.65,0004.35
2022-03-05 22:13:00,,0820.8,5.00,0.00,22.7,22.0,00.0,31.7,24.4,12.7,0000.2,0004.48,0006.45,0004.34
2022-03-05 22:14:00,,0820.8,5.01,0.00,22.6,22.0,00.0,31.7,24.4,12.8,0000.2,0004.50,0006.50,0004.35
2022-03-05 22:15:00,,0820.9,4.99,0.00,22.6,21.9,00.0,31.7,24.4,12.9,0000.0,0004.53,0006.58,0004.36
2022-03-05 22:16:00,,0820.8,5.00,0.00,22.6,21.9,00.0,31.7,24.4,12.9,0000.0,0004.54,0006.60,0004.37
2022-03-05 22:17:00,,0820.8,5.01,0.00,22.6,21.9,00.0,31.7,24.3,12.9,0000.0,0004.56,0006.67,0004.38
2022-03-05 22:18:00,,0820.8,4.99,0.00,22.6,21.9,00.0,31.7,24.3,13.3,0000.0,0004.57,0006.75,0004.37
2022-03-05 22:19:00,,0820.8,5.00,0.00,22.6,21.9,00.0,31.6,24.3,13.4,0000.0,0004.57,0006.71,0004.38
2022-03-05 22:20:00,,0820.8,5.00,0.00,22.5,21.7,00.0,31.6,24.2,13.3,0000.0,0004.56,0006.62,0004.38
2022-03-05 22:21:00,,0820.8,5.00,0.00,22.5,21.6,00.0,31.6,24.2,13.2,0000.0,0004.57,0006.60,0004.39
2022-03-05 22:22:00,,0820.8,4.98,0.00,22.5,21.5,00.0,31.6,24.1,13.3,0000.0,0004.57,0006.47,0004.39
2022-03-05 22:23:00,,0820.7,5.01,0.00,22.4,21.5,00.0,31.6,24.1,13.2,0000.0,0004.60,0006.55,0004.40
2022-03-05 22:24:00,,0820.7,5.00,0.00,22.4,21.5,00.0,31.5,24.1,13.4,0000.0,0004.64,0006.78,0004.41
2022-03-05 22:25:00,,0820.7,5.00,0.00,22.4,21.5,00.0,31.5,24.0,13.2,0000.0,0004.64,0006.80,0004.41
2022-03-05 22:26:00,,0820.7,5.00,0.00,22.3,21.5,00.0,31.5,23.9,13.1,0000.0,0004.60,0006.69,0004.39
2022-03-05 22:27:00,,0820.7,5.02,0.00,22.3,21.4,00.0,31.5,23.9,13.0,0000.0,0004.60,0006.68,0004.38
2022-03-05 22:28:00,,0820.7,4.99,0.00,22.3,21.4,00.0,31.5,23.9,13.2,0000.0,0004.57,0006.58,0004.38
2022-03-05 22:29:00,,0820.7,4.99,0.00,22.2,21.4,00.0,31.4,23.9,13.1,0000.0,0004.57,0006.52,0004.38
2022-03-05 22:30:00,,0820.7,5.01,0.00,22.2,21.3,00.0,31.4,23.9,13.2,0000.0,0004.59,0006.56,0004.40
2022-03-05 22:31:00,,0820.7,4.99,0.00,22.2,21.4,00.0,31.4,23.9,13.3,0000.0,0004.58,0006.49,0004.40
2022-03-05 22:32:00,,0820.7,4.99,0.00,22.3,22.0,00.0,31.4,24.1,13.3,0000.0,0004.57,0006.44,0004.40
2022-03-05 22:33:00,,0820.8,5.01,0.00,22.4,22.8,00.0,31.5,24.4,13.3,0000.0,0004.55,0006.34,0004.40
2022-03-05 22:34:00,,0820.8,4.99,0.00,22.5,23.0,00.0,31.5,24.5,13.4,0000.0,0004.55,0006.28,0004.40
2022-03-05 22:35:00,,0820.8,5.00,0.00,22.6,22.7,00.0,31.5,24.5,13.1,0000.0,0004.56,0006.25,0004.41
2022-03-05 22:36:00,,0820.8,5.00,0.00,22.6,22.5,00.0,31.5,24.4,13.1,0000.0,0004.57,0006.31,0004.42
2022-03-05 22:37:00,,0820.8,4.99,0.00,22.6,22.3,00.0,31.5,24.4,13.2,0000.0,0004.60,0006.46,0004.43
2022-03-05 22:38:00,,0820.8,5.00,0.00,22.5,22.2,00.0,31.5,24.3,13.1,0000.0,0004.61,0006.79,0004.44
2022-03-05 22:39:00,,0820.9,5.00,0.00,22.5,22.0,00.0,31.5,24.3,13.2,0000.0,0004.62,0006.82,0004.44
2022-03-05 22:40:00,,0820.9,5.00,0.00,22.5,21.9,00.0,31.5,24.2,13.2,0000.0,0004.65,0007.26,0004.45
2022-03-05 22:41:00,,0820.8,4.99,0.00,22.4,21.8,00.0,31.5,24.1,13.1,0000.0,0004.64,0007.45,0004.45
2022-03-05 22:42:00,,0820.9,5.00,0.00,22.4,21.7,00.0,31.5,24.1,13.0,0000.0,0004.66,0007.50,0004.46
2022-03-05 22:43:00,,0821.0,5.01,0.00,22.4,21.6,00.0,31.4,24.1,13.1,0000.0,0004.67,0007.52,0004.47
2022-03-05 22:44:00,,0821.0,4.99,0.00,22.4,21.6,00.0,31.4,24.1,13.4,0000.0,0004.68,0007.54,0004.48
2022-03-05 22:45:00,,0821.0,4.99,0.00,22.4,21.6,00.0,31.4,24.1,13.6,0000.0,0004.67,0007.58,0004.46
2022-03-05 22:46:00,,0821.0,5.00,0.00,22.3,21.5,00.0,31.4,24.1,13.6,0000.0,0004.67,0007.56,0004.47
2022-03-05 22:47:00,,0821.0,5.01,0.00,22.3,21.5,00.0,31.4,24.1,13.4,0000.0,0004.68,0007.58,0004.48
2022-03-05 22:48:00,,0821.0,4.99,0.00,22.3,21.5,00.0,31.4,24.1,13.5,0000.0,0004.69,0007.62,0004.48
2022-03-05 22:49:00,,0821.0,5.01,0.00,22.3,21.5,00.0,31.4,24.1,13.5,0000.0,0004.69,0007.44,0004.49
2022-03-05 22:50:00,,0821.0,5.00,0.00,22.3,21.5,00.0,31.4,24.1,13.7,0000.0,0004.70,0007.44,0004.49
2022-03-05 22:51:00,,0821.0,4.99,0.00,22.3,21.5,00.0,31.4,24.0,13.9,0000.0,0004.70,0007.07,0004.50
2022-03-05 22:52:00,,0821.0,5.01,0.00,22.3,21.4,00.0,31.3,24.0,13.7,0000.0,0004.73,0007.04,0004.52
2022-03-05 22:53:00,,0821.0,5.00,0.00,22.2,21.3,00.0,31.3,23.9,13.5,0000.0,0004.74,0007.08,0004.52
2022-03-05 22:54:00,,0821.0,5.00,0.00,22.2,21.2,00.0,31.3,23.9,13.5,0000.0,0004.74,0007.05,0004.51
2022-03-05 22:55:00,,0821.0,4.99,0.00,22.2,21.2,00.0,31.3,23.9,13.6,0000.0,0004.76,0007.11,0004.52
2022-03-05 22:56:00,,0821.0,5.00,0.00,22.1,21.2,00.0,31.3,23.8,13.7,0000.0,0004.77,0007.12,0004.55
2022-03-05 22:57:00,,0821.0,4.99,0.00,22.1,21.2,00.0,31.3,23.8,13.7,0000.0,0004.79,0007.21,0004.57
2022-03-05 22:58:00,,0821.0,5.00,0.00,22.1,21.2,00.0,31.2,23.8,13.7,0000.0,0004.81,0007.26,0004.59
2022-03-05 22:59:00,,0821.0,5.01,0.00,22.1,21.2,00.0,31.2,23.8,13.7,0000.0,0004.80,0007.15,0004.60
